Year,Month,Day,Hour,Minute,Value (Times are PST for temperature in C)
2023,04,24,00,00,7.40
2023,04,24,00,01,7.40
2023,04,24,00,02,7.40
2023,04,24,00,03,7.40
2023,04,24,00,04,7.40
2023,04,24,00,05,7.40
2023,04,24,00,06,7.40
2023,04,24,00,07,7.30
2023,04,24,00,08,7.30
2023,04,24,00,09,7.30
2023,04,24,00,10,7.30
2023,04,24,00,11,7.30
2023,04,24,00,12,7.30
2023,04,24,00,13,7.30
2023,04,24,00,14,7.30
2023,04,24,00,15,7.30
2023,04,24,00,16,7.20
2023,04,24,00,17,7.20
2023,04,24,00,18,7.20
2023,04,24,00,19,7.20
2023,04,24,00,20,7.20
2023,04,24,00,21,7.20
2023,04,24,00,22,7.20
2023,04,24,00,23,7.20
2023,04,24,00,24,7.20
2023,04,24,00,25,7.20
2023,04,24,00,26,7.20
2023,04,24,00,27,7.10
2023,04,24,00,28,7.10
2023,04,24,00,29,7.10
2023,04,24,00,30,7.10
2023,04,24,00,31,7.10
2023,04,24,00,32,7.10
2023,04,24,00,33,7.10
2023,04,24,00,34,7.10
2023,04,24,00,35,7.00
2023,04,24,00,36,7.00
2023,04,24,00,37,7.00
2023,04,24,00,38,7.00
2023,04,24,00,39,7.00
2023,04,24,00,40,7.00
2023,04,24,00,41,7.00
2023,04,24,00,42,7.00
2023,04,24,00,43,7.00
2023,04,24,00,44,7.00
2023,04,24,00,45,7.00
2023,04,24,00,46,7.00
2023,04,24,00,47,7.00
2023,04,24,00,48,7.00
2023,04,24,00,49,7.00
2023,04,24,00,50,7.00
2023,04,24,00,51,7.00
2023,04,24,00,52,7.00
2023,04,24,00,53,7.00
2023,04,24,00,54,7.00
2023,04,24,00,55,6.90
2023,04,24,00,56,6.90
2023,04,24,00,57,6.90
2023,04,24,00,58,6.90
2023,04,24,00,59,6.90
2023,04,24,01,00,6.90
2023,04,24,01,01,6.90
2023,04,24,01,02,6.90
2023,04,24,01,03,6.90
2023,04,24,01,04,7.00
2023,04,24,01,05,7.00
2023,04,24,01,06,7.00
2023,04,24,01,07,7.00
2023,04,24,01,08,7.00
2023,04,24,01,09,7.00
2023,04,24,01,10,7.00
2023,04,24,01,11,7.00
2023,04,24,01,12,7.00
2023,04,24,01,13,7.00
2023,04,24,01,14,7.00
2023,04,24,01,15,7.10
2023,04,24,01,16,7.10
2023,04,24,01,17,7.10
2023,04,24,01,18,7.10
2023,04,24,01,19,7.10
2023,04,24,01,20,7.10
2023,04,24,01,21,7.10
2023,04,24,01,22,7.10
2023,04,24,01,23,7.10
2023,04,24,01,24,7.10
2023,04,24,01,25,7.10
2023,04,24,01,26,7.20
2023,04,24,01,27,7.20
2023,04,24,01,28,7.20
2023,04,24,01,29,7.20
2023,04,24,01,30,7.20
2023,04,24,01,31,7.20
2023,04,24,01,32,7.20
2023,04,24,01,33,7.20
2023,04,24,01,34,7.20
2023,04,24,01,35,7.20
2023,04,24,01,36,7.20
2023,04,24,01,37,7.20
2023,04,24,01,38,7.20
2023,04,24,01,39,7.20
2023,04,24,01,40,7.20
2023,04,24,01,41,7.20
2023,04,24,01,42,7.20
2023,04,24,01,43,7.30
2023,04,24,01,44,7.30
2023,04,24,01,45,7.30
2023,04,24,01,46,7.30
2023,04,24,01,47,7.30
2023,04,24,01,48,7.20
2023,04,24,01,49,7.20
2023,04,24,01,50,7.20
2023,04,24,01,51,7.20
2023,04,24,01,52,7.20
2023,04,24,01,53,7.20
2023,04,24,01,54,7.20
2023,04,24,01,55,7.20
2023,04,24,01,56,7.20
2023,04,24,01,57,7.20
2023,04,24,01,58,7.20
2023,04,24,01,59,7.20
2023,04,24,02,00,7.20
2023,04,24,02,01,7.20
2023,04,24,02,02,7.20
2023,04,24,02,03,7.20
2023,04,24,02,04,7.20
2023,04,24,02,05,7.20
2023,04,24,02,06,7.20
2023,04,24,02,07,7.20
2023,04,24,02,08,7.20
2023,04,24,02,09,7.20
2023,04,24,02,10,7.20
2023,04,24,02,11,7.10
2023,04,24,02,12,7.10
2023,04,24,02,13,7.10
2023,04,24,02,14,7.10
2023,04,24,02,15,7.10
2023,04,24,02,16,7.10
2023,04,24,02,17,7.10
2023,04,24,02,18,7.10
2023,04,24,02,19,7.10
2023,04,24,02,20,7.10
2023,04,24,02,21,7.00
2023,04,24,02,22,7.00
2023,04,24,02,23,7.00
2023,04,24,02,24,7.00
2023,04,24,02,25,7.00
2023,04,24,02,26,7.00
2023,04,24,02,27,7.00
2023,04,24,02,28,7.00
2023,04,24,02,29,7.00
2023,04,24,02,30,6.90
2023,04,24,02,31,6.90
2023,04,24,02,32,6.90
2023,04,24,02,33,6.90
2023,04,24,02,34,6.90
2023,04,24,02,35,6.90
2023,04,24,02,36,6.90
2023,04,24,02,37,6.90
2023,04,24,02,38,6.90
2023,04,24,02,39,6.90
2023,04,24,02,40,6.90
2023,04,24,02,41,6.90
2023,04,24,02,42,6.90
2023,04,24,02,43,6.90
2023,04,24,02,44,6.90
2023,04,24,02,45,6.90
2023,04,24,02,46,6.90
2023,04,24,02,47,6.90
2023,04,24,02,48,6.80
2023,04,24,02,49,6.80
2023,04,24,02,50,6.90
2023,04,24,02,51,6.80
2023,04,24,02,52,6.80
2023,04,24,02,53,6.80
2023,04,24,02,54,6.80
2023,04,24,02,55,6.80
2023,04,24,02,56,6.80
2023,04,24,02,57,6.80
2023,04,24,02,58,6.80
2023,04,24,02,59,6.80
2023,04,24,03,00,6.80
2023,04,24,03,01,6.80
2023,04,24,03,02,6.80
2023,04,24,03,03,6.80
2023,04,24,03,04,6.70
2023,04,24,03,05,6.70
2023,04,24,03,06,6.70
2023,04,24,03,07,6.70
2023,04,24,03,08,6.70
2023,04,24,03,09,6.70
2023,04,24,03,10,6.70
2023,04,24,03,11,6.70
2023,04,24,03,12,6.70
2023,04,24,03,13,6.70
2023,04,24,03,14,6.70
2023,04,24,03,15,6.70
2023,04,24,03,16,6.80
2023,04,24,03,17,6.80
2023,04,24,03,18,6.80
2023,04,24,03,19,6.80
2023,04,24,03,20,6.80
2023,04,24,03,21,6.80
2023,04,24,03,22,6.80
2023,04,24,03,23,6.80
2023,04,24,03,24,6.80
2023,04,24,03,25,6.80
2023,04,24,03,26,6.80
2023,04,24,03,27,6.80
2023,04,24,03,28,6.80
2023,04,24,03,29,6.80
2023,04,24,03,30,6.80
2023,04,24,03,31,6.80
2023,04,24,03,32,6.80
2023,04,24,03,33,6.80
2023,04,24,03,34,6.80
2023,04,24,03,35,6.80
2023,04,24,03,36,6.80
2023,04,24,03,37,6.80
2023,04,24,03,38,6.80
2023,04,24,03,39,6.70
2023,04,24,03,40,6.70
2023,04,24,03,41,6.70
2023,04,24,03,42,6.70
2023,04,24,03,43,6.70
2023,04,24,03,44,6.70
2023,04,24,03,45,6.70
2023,04,24,03,46,6.70
2023,04,24,03,47,6.70
2023,04,24,03,48,6.70
2023,04,24,03,49,6.70
2023,04,24,03,50,6.70
2023,04,24,03,51,6.70
2023,04,24,03,52,6.70
2023,04,24,03,53,6.70
2023,04,24,03,54,6.70
2023,04,24,03,55,6.70
2023,04,24,03,56,6.70
2023,04,24,03,57,6.70
2023,04,24,03,58,6.70
2023,04,24,03,59,6.70
2023,04,24,04,00,6.70
2023,04,24,04,01,6.70
2023,04,24,04,02,6.70
2023,04,24,04,03,6.70
2023,04,24,04,04,6.70
2023,04,24,04,05,6.70
2023,04,24,04,06,6.70
2023,04,24,04,07,6.70
2023,04,24,04,08,6.70
2023,04,24,04,09,6.70
2023,04,24,04,10,6.70
2023,04,24,04,11,6.70
2023,04,24,04,12,6.70
2023,04,24,04,13,6.70
2023,04,24,04,14,6.70
2023,04,24,04,15,6.70
2023,04,24,04,16,6.60
2023,04,24,04,17,6.70
2023,04,24,04,18,6.70
2023,04,24,04,19,6.70
2023,04,24,04,20,6.70
2023,04,24,04,21,6.70
2023,04,24,04,22,6.70
2023,04,24,04,23,6.70
2023,04,24,04,24,6.70
2023,04,24,04,25,6.70
2023,04,24,04,26,6.70
2023,04,24,04,27,6.70
2023,04,24,04,28,6.70
2023,04,24,04,29,6.70
2023,04,24,04,30,6.70
2023,04,24,04,31,6.70
2023,04,24,04,32,6.70
2023,04,24,04,33,6.70
2023,04,24,04,34,6.70
2023,04,24,04,35,6.70
2023,04,24,04,36,6.70
2023,04,24,04,37,6.70
2023,04,24,04,38,6.70
2023,04,24,04,39,6.70
2023,04,24,04,40,6.70
2023,04,24,04,41,6.70
2023,04,24,04,42,6.70
2023,04,24,04,43,6.70
2023,04,24,04,44,6.70
2023,04,24,04,45,6.70
2023,04,24,04,46,6.70
2023,04,24,04,47,6.70
2023,04,24,04,48,6.70
2023,04,24,04,49,6.70
2023,04,24,04,50,6.70
2023,04,24,04,51,6.70
2023,04,24,04,52,6.70
2023,04,24,04,53,6.60
2023,04,24,04,54,6.60
2023,04,24,04,55,6.60
2023,04,24,04,56,6.60
2023,04,24,04,57,6.60
2023,04,24,04,58,6.60
2023,04,24,04,59,6.60
2023,04,24,05,00,6.50
2023,04,24,05,01,6.50
2023,04,24,05,02,6.50
2023,04,24,05,03,6.50
2023,04,24,05,04,6.50
2023,04,24,05,05,6.50
2023,04,24,05,06,6.50
2023,04,24,05,07,6.50
2023,04,24,05,08,6.40
2023,04,24,05,09,6.40
2023,04,24,05,10,6.40
2023,04,24,05,11,6.40
2023,04,24,05,12,6.30
2023,04,24,05,13,6.30
2023,04,24,05,14,6.30
2023,04,24,05,15,6.20
2023,04,24,05,16,6.20
2023,04,24,05,17,6.20
2023,04,24,05,18,6.10
2023,04,24,05,19,6.10
2023,04,24,05,20,6.10
2023,04,24,05,21,6.10
2023,04,24,05,22,6.10
2023,04,24,05,23,6.10
2023,04,24,05,24,6.10
2023,04,24,05,25,6.00
2023,04,24,05,26,6.00
2023,04,24,05,27,6.00
2023,04,24,05,28,5.90
2023,04,24,05,29,5.80
2023,04,24,05,30,5.80
2023,04,24,05,31,5.70
2023,04,24,05,32,5.70
2023,04,24,05,33,5.60
2023,04,24,05,34,5.60
2023,04,24,05,35,5.50
2023,04,24,05,36,5.50
2023,04,24,05,37,5.50
2023,04,24,05,38,5.40
2023,04,24,05,39,5.40
2023,04,24,05,40,5.40
2023,04,24,05,41,5.30
2023,04,24,05,42,5.30
2023,04,24,05,43,5.30
2023,04,24,05,44,5.30
2023,04,24,05,45,5.20
2023,04,24,05,46,5.20
2023,04,24,05,47,5.20
2023,04,24,05,48,5.20
2023,04,24,05,49,5.10
2023,04,24,05,50,5.10
2023,04,24,05,51,5.10
2023,04,24,05,52,5.00
2023,04,24,05,53,5.00
2023,04,24,05,54,5.00
2023,04,24,05,55,4.90
2023,04,24,05,56,4.90
2023,04,24,05,57,4.90
2023,04,24,05,58,4.90
2023,04,24,05,59,4.90
2023,04,24,06,00,4.90
2023,04,24,06,01,4.90
2023,04,24,06,02,4.80
2023,04,24,06,03,4.80
2023,04,24,06,04,4.80
2023,04,24,06,05,4.70
2023,04,24,06,06,4.70
2023,04,24,06,07,4.70
2023,04,24,06,08,4.60
2023,04,24,06,09,4.60
2023,04,24,06,10,4.60
2023,04,24,06,11,4.60
2023,04,24,06,12,4.60
2023,04,24,06,13,4.50
2023,04,24,06,14,4.50
2023,04,24,06,15,4.50
2023,04,24,06,16,4.50
2023,04,24,06,17,4.40
2023,04,24,06,18,4.40
2023,04,24,06,19,4.40
2023,04,24,06,20,4.40
2023,04,24,06,21,4.40
2023,04,24,06,22,4.40
2023,04,24,06,23,4.40
2023,04,24,06,24,4.40
2023,04,24,06,25,4.40
2023,04,24,06,26,4.40
2023,04,24,06,27,4.40
2023,04,24,06,28,4.40
2023,04,24,06,29,4.40
2023,04,24,06,30,4.40
2023,04,24,06,31,4.40
2023,04,24,06,32,4.40
2023,04,24,06,33,4.40
2023,04,24,06,34,4.40
2023,04,24,06,35,4.50
2023,04,24,06,36,4.50
2023,04,24,06,37,4.50
2023,04,24,06,38,4.60
2023,04,24,06,39,4.60
2023,04,24,06,40,4.60
2023,04,24,06,41,4.60
2023,04,24,06,42,4.70
2023,04,24,06,43,4.70
2023,04,24,06,44,4.70
2023,04,24,06,45,4.70
2023,04,24,06,46,4.70
2023,04,24,06,47,4.70
2023,04,24,06,48,4.70
2023,04,24,06,49,4.80
2023,04,24,06,50,4.80
2023,04,24,06,51,4.80
2023,04,24,06,52,4.90
2023,04,24,06,53,4.90
2023,04,24,06,54,5.00
2023,04,24,06,55,5.00
2023,04,24,06,56,5.10
2023,04,24,06,57,5.10
2023,04,24,06,58,5.10
2023,04,24,06,59,5.10
2023,04,24,07,00,5.10
2023,04,24,07,01,5.10
2023,04,24,07,02,5.10
2023,04,24,07,03,5.20
2023,04,24,07,04,5.20
2023,04,24,07,05,5.20
2023,04,24,07,06,5.30
2023,04,24,07,07,5.30
2023,04,24,07,08,5.40
2023,04,24,07,09,5.50
2023,04,24,07,10,5.60
2023,04,24,07,11,5.60
2023,04,24,07,12,5.70
2023,04,24,07,13,5.70
2023,04,24,07,14,5.80
2023,04,24,07,15,5.80
2023,04,24,07,16,5.80
2023,04,24,07,17,5.80
2023,04,24,07,18,5.80
2023,04,24,07,19,5.80
2023,04,24,07,20,5.90
2023,04,24,07,21,5.90
2023,04,24,07,22,5.90
2023,04,24,07,23,5.90
2023,04,24,07,24,6.00
2023,04,24,07,25,6.00
2023,04,24,07,26,6.10
2023,04,24,07,27,6.10
2023,04,24,07,28,6.10
2023,04,24,07,29,6.20
2023,04,24,07,30,6.20
2023,04,24,07,31,6.20
2023,04,24,07,32,6.30
2023,04,24,07,33,6.30
2023,04,24,07,34,6.30
2023,04,24,07,35,6.30
2023,04,24,07,36,6.40
2023,04,24,07,37,6.40
2023,04,24,07,38,6.40
2023,04,24,07,39,6.40
2023,04,24,07,40,6.50
2023,04,24,07,41,6.50
2023,04,24,07,42,6.50
2023,04,24,07,43,6.60
2023,04,24,07,44,6.60
2023,04,24,07,45,6.60
2023,04,24,07,46,6.70
2023,04,24,07,47,6.70
2023,04,24,07,48,6.80
2023,04,24,07,49,6.80
2023,04,24,07,50,6.80
2023,04,24,07,51,6.80
2023,04,24,07,52,6.90
2023,04,24,07,53,6.90
2023,04,24,07,54,6.90
2023,04,24,07,55,7.00
2023,04,24,07,56,7.00
2023,04,24,07,57,7.00
2023,04,24,07,58,7.10
2023,04,24,07,59,7.10
2023,04,24,08,00,7.10
2023,04,24,08,01,7.20
2023,04,24,08,02,7.20
2023,04,24,08,03,7.20
2023,04,24,08,04,7.20
2023,04,24,08,05,7.30
2023,04,24,08,06,7.30
2023,04,24,08,07,7.30
2023,04,24,08,08,7.30
2023,04,24,08,09,7.40
2023,04,24,08,10,7.40
2023,04,24,08,11,7.40
2023,04,24,08,12,7.40
2023,04,24,08,13,7.40
2023,04,24,08,14,7.50
2023,04,24,08,15,7.50
2023,04,24,08,16,7.50
2023,04,24,08,17,7.60
2023,04,24,08,18,7.60
2023,04,24,08,19,7.60
2023,04,24,08,20,7.60
2023,04,24,08,21,7.60
2023,04,24,08,22,7.70
2023,04,24,08,23,7.70
2023,04,24,08,24,7.70
2023,04,24,08,25,7.70
2023,04,24,08,26,7.70
2023,04,24,08,27,7.80
2023,04,24,08,28,7.80
2023,04,24,08,29,7.80
2023,04,24,08,30,7.80
2023,04,24,08,31,7.90
2023,04,24,08,32,7.90
2023,04,24,08,33,8.00
2023,04,24,08,34,8.00
2023,04,24,08,35,8.00
2023,04,24,08,36,8.10
2023,04,24,08,37,8.10
2023,04,24,08,38,8.10
2023,04,24,08,39,8.20
2023,04,24,08,40,8.20
2023,04,24,08,41,8.20
2023,04,24,08,42,8.20
2023,04,24,08,43,8.20
2023,04,24,08,44,8.20
2023,04,24,08,45,8.30
2023,04,24,08,46,8.30
2023,04,24,08,47,8.30
2023,04,24,08,48,8.30
2023,04,24,08,49,8.30
2023,04,24,08,50,8.40
2023,04,24,08,51,8.40
2023,04,24,08,52,8.40
2023,04,24,08,53,8.40
2023,04,24,08,54,8.30
2023,04,24,08,55,8.30
2023,04,24,08,56,8.30
2023,04,24,08,57,8.40
2023,04,24,08,58,8.40
2023,04,24,08,59,8.40
2023,04,24,09,00,8.40
2023,04,24,09,01,8.40
2023,04,24,09,02,8.40
2023,04,24,09,03,8.40
2023,04,24,09,04,8.40
2023,04,24,09,05,8.50
2023,04,24,09,06,8.50
2023,04,24,09,07,8.50
2023,04,24,09,08,8.60
2023,04,24,09,09,8.60
2023,04,24,09,10,8.60
2023,04,24,09,11,8.70
2023,04,24,09,12,8.70
2023,04,24,09,13,8.70
2023,04,24,09,14,8.80
2023,04,24,09,15,8.80
2023,04,24,09,16,8.80
2023,04,24,09,17,8.80
2023,04,24,09,18,8.80
2023,04,24,09,19,8.90
2023,04,24,09,20,8.90
2023,04,24,09,21,8.90
2023,04,24,09,22,9.00
2023,04,24,09,23,9.10
2023,04,24,09,24,9.20
2023,04,24,09,25,9.40
2023,04,24,09,26,9.50
2023,04,24,09,27,9.60
2023,04,24,09,28,9.70
2023,04,24,09,29,9.70
2023,04,24,09,30,9.70
2023,04,24,09,31,9.70
2023,04,24,09,32,9.70
2023,04,24,09,33,9.70
2023,04,24,09,34,9.70
2023,04,24,09,35,9.80
2023,04,24,09,36,9.80
2023,04,24,09,37,9.80
2023,04,24,09,38,9.90
2023,04,24,09,39,10.00
2023,04,24,09,40,10.10
2023,04,24,09,41,10.20
2023,04,24,09,42,10.20
2023,04,24,09,43,10.20
2023,04,24,09,44,10.20
2023,04,24,09,45,10.30
2023,04,24,09,46,10.20
2023,04,24,09,47,10.20
2023,04,24,09,48,10.20
2023,04,24,09,49,10.20
2023,04,24,09,50,10.30
2023,04,24,09,51,10.30
2023,04,24,09,52,10.30
2023,04,24,09,53,10.40
2023,04,24,09,54,10.50
2023,04,24,09,55,10.50
2023,04,24,09,56,10.60
2023,04,24,09,57,10.60
2023,04,24,09,58,10.60
2023,04,24,09,59,10.70
2023,04,24,10,00,10.80
2023,04,24,10,01,10.90
2023,04,24,10,02,11.00
2023,04,24,10,03,11.00
2023,04,24,10,04,11.00
2023,04,24,10,05,10.90
2023,04,24,10,06,10.90
2023,04,24,10,07,10.80
2023,04,24,10,08,10.80
2023,04,24,10,09,10.80
2023,04,24,10,10,10.80
2023,04,24,10,11,10.80
2023,04,24,10,12,10.80
2023,04,24,10,13,10.80
2023,04,24,10,14,10.80
2023,04,24,10,15,10.80
2023,04,24,10,16,10.80
2023,04,24,10,17,10.90
2023,04,24,10,18,10.90
2023,04,24,10,19,10.90
2023,04,24,10,20,10.90
2023,04,24,10,21,10.90
2023,04,24,10,22,10.80
2023,04,24,10,23,10.80
2023,04,24,10,24,10.80
2023,04,24,10,25,10.70
2023,04,24,10,26,10.70
2023,04,24,10,27,10.70
2023,04,24,10,28,10.70
2023,04,24,10,29,10.70
2023,04,24,10,30,10.70
2023,04,24,10,31,10.70
2023,04,24,10,32,10.70
2023,04,24,10,33,10.80
2023,04,24,10,34,10.80
2023,04,24,10,35,10.80
2023,04,24,10,36,10.80
2023,04,24,10,37,10.80
2023,04,24,10,38,10.80
2023,04,24,10,39,10.80
2023,04,24,10,40,10.80
2023,04,24,10,41,10.80
2023,04,24,10,42,10.80
2023,04,24,10,43,10.80
2023,04,24,10,44,10.90
2023,04,24,10,45,10.90
2023,04,24,10,46,11.00
2023,04,24,10,47,11.10
2023,04,24,10,48,11.30
2023,04,24,10,49,11.40
2023,04,24,10,50,11.60
2023,04,24,10,51,11.70
2023,04,24,10,52,11.80
2023,04,24,10,53,12.00
2023,04,24,10,54,12.20
2023,04,24,10,55,12.30
2023,04,24,10,56,12.30
2023,04,24,10,57,12.30
2023,04,24,10,58,12.30
2023,04,24,10,59,12.30
2023,04,24,11,00,12.20
2023,04,24,11,01,12.20
2023,04,24,11,02,12.20
2023,04,24,11,03,12.10
2023,04,24,11,04,12.10
2023,04,24,11,05,12.10
2023,04,24,11,06,12.10
2023,04,24,11,07,12.10
2023,04,24,11,08,12.10
2023,04,24,11,09,12.10
2023,04,24,11,10,12.10
2023,04,24,11,11,12.00
2023,04,24,11,12,11.90
2023,04,24,11,13,11.80
2023,04,24,11,14,11.70
2023,04,24,11,15,11.50
2023,04,24,11,16,11.30
2023,04,24,11,17,11.20
2023,04,24,11,18,11.10
2023,04,24,11,19,11.00
2023,04,24,11,20,10.90
2023,04,24,11,21,10.80
2023,04,24,11,22,10.80
2023,04,24,11,23,10.80
2023,04,24,11,24,10.80
2023,04,24,11,25,10.80
2023,04,24,11,26,10.80
2023,04,24,11,27,10.80
2023,04,24,11,28,10.90
2023,04,24,11,29,11.00
2023,04,24,11,30,11.20
2023,04,24,11,31,11.30
2023,04,24,11,32,11.30
2023,04,24,11,33,11.40
2023,04,24,11,34,11.50
2023,04,24,11,35,11.60
2023,04,24,11,36,11.70
2023,04,24,11,37,11.70
2023,04,24,11,38,11.80
2023,04,24,11,39,11.90
2023,04,24,11,40,12.10
2023,04,24,11,41,12.20
2023,04,24,11,42,12.30
2023,04,24,11,43,12.40
2023,04,24,11,44,12.40
2023,04,24,11,45,12.50
2023,04,24,11,46,12.50
2023,04,24,11,47,12.50
2023,04,24,11,48,12.50
2023,04,24,11,49,12.50
2023,04,24,11,50,12.40
2023,04,24,11,51,12.40
2023,04,24,11,52,12.40
2023,04,24,11,53,12.30
2023,04,24,11,54,12.30
2023,04,24,11,55,12.30
2023,04,24,11,56,12.20
2023,04,24,11,57,12.20
2023,04,24,11,58,12.00
2023,04,24,11,59,11.90
2023,04,24,12,00,11.80
2023,04,24,12,01,11.70
2023,04,24,12,02,11.60
2023,04,24,12,03,11.50
2023,04,24,12,04,11.40
2023,04,24,12,05,11.30
2023,04,24,12,06,11.30
2023,04,24,12,07,11.20
2023,04,24,12,08,11.10
2023,04,24,12,09,11.10
2023,04,24,12,10,11.00
2023,04,24,12,11,10.90
2023,04,24,12,12,10.90
2023,04,24,12,13,10.80
2023,04,24,12,14,10.80
2023,04,24,12,15,10.80
2023,04,24,12,16,10.80
2023,04,24,12,17,10.90
2023,04,24,12,18,10.90
2023,04,24,12,19,10.90
2023,04,24,12,20,10.90
2023,04,24,12,21,10.90
2023,04,24,12,22,11.00
2023,04,24,12,23,11.00
2023,04,24,12,24,11.00
2023,04,24,12,25,11.00
2023,04,24,12,26,10.90
2023,04,24,12,27,10.90
2023,04,24,12,28,10.80
2023,04,24,12,29,10.80
2023,04,24,12,30,10.70
2023,04,24,12,31,10.70
2023,04,24,12,32,10.70
2023,04,24,12,33,10.70
2023,04,24,12,34,10.70
2023,04,24,12,35,10.80
2023,04,24,12,36,10.80
2023,04,24,12,37,10.80
2023,04,24,12,38,10.80
2023,04,24,12,39,10.90
2023,04,24,12,40,10.90
2023,04,24,12,41,11.00
2023,04,24,12,42,11.00
2023,04,24,12,43,11.10
2023,04,24,12,44,11.10
2023,04,24,12,45,11.10
2023,04,24,12,46,11.10
2023,04,24,12,47,11.10
2023,04,24,12,48,11.10
2023,04,24,12,49,11.20
2023,04,24,12,50,11.20
2023,04,24,12,51,11.20
2023,04,24,12,52,11.40
2023,04,24,12,53,11.40
2023,04,24,12,54,11.50
2023,04,24,12,55,11.60
2023,04,24,12,56,11.60
2023,04,24,12,57,11.70
2023,04,24,12,58,11.70
2023,04,24,12,59,11.70
2023,04,24,13,00,11.70
2023,04,24,13,01,11.70
2023,04,24,13,02,11.70
2023,04,24,13,03,11.80
2023,04,24,13,04,11.90
2023,04,24,13,05,12.10
2023,04,24,13,06,12.20
2023,04,24,13,07,12.40
2023,04,24,13,08,12.50
2023,04,24,13,09,12.50
2023,04,24,13,10,12.60
2023,04,24,13,11,12.60
2023,04,24,13,12,12.70
2023,04,24,13,13,12.60
2023,04,24,13,14,12.50
2023,04,24,13,15,12.40
2023,04,24,13,16,12.30
2023,04,24,13,17,12.30
2023,04,24,13,18,12.20
2023,04,24,13,19,12.10
2023,04,24,13,20,12.10
2023,04,24,13,21,12.20
2023,04,24,13,22,12.10
2023,04,24,13,23,12.10
2023,04,24,13,24,12.20
2023,04,24,13,25,12.20
2023,04,24,13,26,12.30
2023,04,24,13,27,12.30
2023,04,24,13,28,12.30
2023,04,24,13,29,12.20
2023,04,24,13,30,12.10
2023,04,24,13,31,12.00
2023,04,24,13,32,11.90
2023,04,24,13,33,11.80
2023,04,24,13,34,11.70
2023,04,24,13,35,11.60
2023,04,24,13,36,11.60
2023,04,24,13,37,11.60
2023,04,24,13,38,11.50
2023,04,24,13,39,11.50
2023,04,24,13,40,11.40
2023,04,24,13,41,11.50
2023,04,24,13,42,11.50
2023,04,24,13,43,11.60
2023,04,24,13,44,11.70
2023,04,24,13,45,11.70
2023,04,24,13,46,11.80
2023,04,24,13,47,11.90
2023,04,24,13,48,11.90
2023,04,24,13,49,12.00
2023,04,24,13,50,12.20
2023,04,24,13,51,12.30
2023,04,24,13,52,12.40
2023,04,24,13,53,12.40
2023,04,24,13,54,12.50
2023,04,24,13,55,12.50
2023,04,24,13,56,12.50
2023,04,24,13,57,12.60
2023,04,24,13,58,12.70
2023,04,24,13,59,12.80
2023,04,24,14,00,12.90
2023,04,24,14,01,13.10
2023,04,24,14,02,13.20
2023,04,24,14,03,13.30
2023,04,24,14,04,13.30
2023,04,24,14,05,13.40
2023,04,24,14,06,13.40
2023,04,24,14,07,13.40
2023,04,24,14,08,13.50
2023,04,24,14,09,13.40
2023,04,24,14,10,13.50
2023,04,24,14,11,13.40
2023,04,24,14,12,13.50
2023,04,24,14,13,13.60
2023,04,24,14,14,13.60
2023,04,24,14,15,13.60
2023,04,24,14,16,13.70
2023,04,24,14,17,13.60
2023,04,24,14,18,13.50
2023,04,24,14,19,13.50
2023,04,24,14,20,13.40
2023,04,24,14,21,13.40
2023,04,24,14,22,13.30
2023,04,24,14,23,13.30
2023,04,24,14,24,13.30
2023,04,24,14,25,13.30
2023,04,24,14,26,13.40
2023,04,24,14,27,13.40
2023,04,24,14,28,13.40
2023,04,24,14,29,13.40
2023,04,24,14,30,13.40
2023,04,24,14,31,13.50
2023,04,24,14,32,13.50
2023,04,24,14,33,13.60
2023,04,24,14,34,13.70
2023,04,24,14,35,13.70
2023,04,24,14,36,13.80
2023,04,24,14,37,13.80
2023,04,24,14,38,13.80
2023,04,24,14,39,13.80
2023,04,24,14,40,13.90
2023,04,24,14,41,13.90
2023,04,24,14,42,13.90
2023,04,24,14,43,13.90
2023,04,24,14,44,13.80
2023,04,24,14,45,13.80
2023,04,24,14,46,13.90
2023,04,24,14,47,13.90
2023,04,24,14,48,14.00
2023,04,24,14,49,14.00
2023,04,24,14,50,14.00
2023,04,24,14,51,14.00
2023,04,24,14,52,14.00
2023,04,24,14,53,14.10
2023,04,24,14,54,14.00
2023,04,24,14,55,13.90
2023,04,24,14,56,14.00
2023,04,24,14,57,13.90
2023,04,24,14,58,13.90
2023,04,24,14,59,13.80
2023,04,24,15,00,13.80
2023,04,24,15,01,13.80
2023,04,24,15,02,13.80
2023,04,24,15,03,13.80
2023,04,24,15,04,13.80
2023,04,24,15,05,13.80
2023,04,24,15,06,13.80
2023,04,24,15,07,13.90
2023,04,24,15,08,13.90
2023,04,24,15,09,13.90
2023,04,24,15,10,13.90
2023,04,24,15,11,14.00
2023,04,24,15,12,14.10
2023,04,24,15,13,14.20
2023,04,24,15,14,14.20
2023,04,24,15,15,14.20
2023,04,24,15,16,14.20
2023,04,24,15,17,14.30
2023,04,24,15,18,14.30
2023,04,24,15,19,14.30
2023,04,24,15,20,14.30
2023,04,24,15,21,14.40
2023,04,24,15,22,14.50
2023,04,24,15,23,14.60
2023,04,24,15,24,14.70
2023,04,24,15,25,14.80
2023,04,24,15,26,14.80
2023,04,24,15,27,14.80
2023,04,24,15,28,14.80
2023,04,24,15,29,14.80
2023,04,24,15,30,14.80
2023,04,24,15,31,14.90
2023,04,24,15,32,14.90
2023,04,24,15,33,14.90
2023,04,24,15,34,14.90
2023,04,24,15,35,14.80
2023,04,24,15,36,14.60
2023,04,24,15,37,14.40
2023,04,24,15,38,14.30
2023,04,24,15,39,14.20
2023,04,24,15,40,14.00
2023,04,24,15,41,13.90
2023,04,24,15,42,13.90
2023,04,24,15,43,13.80
2023,04,24,15,44,13.70
2023,04,24,15,45,13.60
2023,04,24,15,46,13.50
2023,04,24,15,47,13.30
2023,04,24,15,48,13.20
2023,04,24,15,49,13.20
2023,04,24,15,50,13.20
2023,04,24,15,51,13.20
2023,04,24,15,52,13.20
2023,04,24,15,53,13.20
2023,04,24,15,54,13.30
2023,04,24,15,55,13.40
2023,04,24,15,56,13.40
2023,04,24,15,57,13.50
2023,04,24,15,58,13.50
2023,04,24,15,59,13.60
2023,04,24,16,00,13.60
2023,04,24,16,01,13.50
2023,04,24,16,02,13.60
2023,04,24,16,03,13.60
2023,04,24,16,04,13.60
2023,04,24,16,05,13.60
2023,04,24,16,06,13.60
2023,04,24,16,07,13.50
2023,04,24,16,08,13.40
2023,04,24,16,09,13.30
2023,04,24,16,10,13.10
2023,04,24,16,11,13.00
2023,04,24,16,12,12.90
2023,04,24,16,13,12.80
2023,04,24,16,14,12.80
2023,04,24,16,15,12.80
2023,04,24,16,16,12.80
2023,04,24,16,17,12.70
2023,04,24,16,18,12.70
2023,04,24,16,19,12.60
2023,04,24,16,20,12.60
2023,04,24,16,21,12.50
2023,04,24,16,22,12.60
2023,04,24,16,23,12.60
2023,04,24,16,24,12.50
2023,04,24,16,25,12.50
2023,04,24,16,26,12.50
2023,04,24,16,27,12.40
2023,04,24,16,28,12.40
2023,04,24,16,29,12.40
2023,04,24,16,30,12.40
2023,04,24,16,31,12.30
2023,04,24,16,32,12.30
2023,04,24,16,33,12.40
2023,04,24,16,34,12.40
2023,04,24,16,35,12.50
2023,04,24,16,36,12.50
2023,04,24,16,37,12.60
2023,04,24,16,38,12.60
2023,04,24,16,39,12.70
2023,04,24,16,40,12.80
2023,04,24,16,41,12.80
2023,04,24,16,42,12.80
2023,04,24,16,43,12.80
2023,04,24,16,44,12.90
2023,04,24,16,45,12.90
2023,04,24,16,46,12.90
2023,04,24,16,47,12.90
2023,04,24,16,48,12.80
2023,04,24,16,49,12.80
2023,04,24,16,50,12.70
2023,04,24,16,51,12.70
2023,04,24,16,52,12.80
2023,04,24,16,53,12.80
2023,04,24,16,54,12.80
2023,04,24,16,55,12.80
2023,04,24,16,56,12.80
2023,04,24,16,57,12.90
2023,04,24,16,58,12.90
2023,04,24,16,59,12.90
2023,04,24,17,00,13.00
2023,04,24,17,01,13.10
2023,04,24,17,02,13.10
2023,04,24,17,03,13.20
2023,04,24,17,04,13.20
2023,04,24,17,05,13.20
2023,04,24,17,06,13.30
2023,04,24,17,07,13.40
2023,04,24,17,08,13.40
2023,04,24,17,09,13.40
2023,04,24,17,10,13.50
2023,04,24,17,11,13.50
2023,04,24,17,12,13.60
2023,04,24,17,13,13.60
2023,04,24,17,14,13.70
2023,04,24,17,15,13.80
2023,04,24,17,16,13.80
2023,04,24,17,17,13.90
2023,04,24,17,18,14.00
2023,04,24,17,19,14.10
2023,04,24,17,20,14.20
2023,04,24,17,21,14.40
2023,04,24,17,22,14.50
2023,04,24,17,23,14.50
2023,04,24,17,24,14.50
2023,04,24,17,25,14.50
2023,04,24,17,26,14.50
2023,04,24,17,27,14.50
2023,04,24,17,28,14.40
2023,04,24,17,29,14.30
2023,04,24,17,30,14.20
2023,04,24,17,31,14.10
2023,04,24,17,32,14.00
2023,04,24,17,33,14.00
2023,04,24,17,34,13.90
2023,04,24,17,35,13.80
2023,04,24,17,36,13.80
2023,04,24,17,37,13.80
2023,04,24,17,38,13.70
2023,04,24,17,39,13.70
2023,04,24,17,40,13.70
2023,04,24,17,41,13.70
2023,04,24,17,42,13.70
2023,04,24,17,43,13.70
2023,04,24,17,44,13.70